User: anonymous
Location: Unspecified
(0.0000°N, 0.0000°E)
Time: 00:24:19
(UTC+02:00)
Language:

Cosmos 1263 Rocket - Orbit

View from above orbital plane
View from above orbital plane
View from above satellite
View from above satellite

Ground track
Ground track

The orbit data is extracted from the following two-line orbital elements,

1 12389U 81033B   14232.43279153  .00028322  00000-0  41155-3 0   485
2 12389 082.8721 045.5407 0200074 242.7793 179.7554 15.35764251719571
Epoch (UTC): 20 August 2014 10:23:13
Eccentricity: 0.0200074
inclination: 82.8721°
perigee height: 322 km
apogee height: 595 km
right ascension of ascending node: 45.5407°
argument of perigee: 242.7793°
revolutions per day: 15.35764251
mean anomaly at epoch: 179.7554°
orbit number at epoch: 71957

The dashed part of the orbit path shows where the satellite is in the earth's shadow,  

DLR